Location: Beaurecueil
(43.5122°N, 5.5450°E)
Time: 07:36:38
(UTC+00:00)

Cosmos 1939 Rocket - Pass Details

Date: 26 January 2021
Orbit: 531 x 585 km, 97.4° (Epoch: 04 March)

Event Time Altitude Azimuth Distance (km) Brightness Sun altitude
Rises 17:27:15 0° 163° (SSE) 2,785 6.4 -8.6°
Reaches altitude 10° 17:29:24 10° 161° (SSE) 1,885 5.5 -9.0°
Maximum altitude 17:33:29 77° 77° (ENE) 594 2.8 -9.7°
Drops below altitude 10° 17:37:32 10° 351° (N) 1,873 5.5 -10.4°
Sets 17:39:40 0° 350° (N) 2,765 6.3 -10.7°
